Location: *
(58.7167°N, 26.1833°E)
Time: 18:19:21
(UTC+00:00)

Cosmos 1908 Rocket - Pass Details

Date: 25 August 2019
Orbit: 605 x 633 km, 82.5° (Epoch: 22 September)

Event Time Altitude Azimuth Distance (km) Brightness Sun altitude
Rises 18:42:43 0° 180° (S) 2,920 6.7 -8.3°
Reaches altitude 10° 18:44:58 10° 177° (S) 2,015 5.8 -8.5°
Maximum altitude 18:49:22 60° 98° (E) 727 3.7 -9.0°
Drops below altitude 10° 18:53:46 10° 19° (NNE) 2,018 6.5 -9.4°
Sets 18:56:01 0° 16° (NNE) 2,925 7.4 -9.7°
